Tracking 29892 objects as of 21-Nov-2024
HD Live streaming from Space Station
objects crossing your sky now

SL-26 R/B

Track SL-26 R/B now!


NORAD ID: 37399
Int'l Code: 2011-018B
Perigee: 823.6 km
Apogee: 39,542.5 km
Inclination: 62.5 °
Period: 717.7 minutes
Semi major axis: 26554 km
RCS: 1.7783 m2 (large)
Launch date: May 4, 2011
Source: Commonwealth of Independent States (former USSR) (CIS)
Launch site: PLESETSK MISSILE AND SPACE COMPLEX (PKMTR)

Note: This is a ROCKET BODY
Your satellite tracking list
Your tracking list is empty




NASA's NSSDC Master Catalog

Two Line Element Set (TLE):
1 37399U 11018B   24323.26443309  .00001167  00000-0 -10952-2 0  9992
2 37399  62.5052 152.7852 7290589 259.7748  18.4199  2.00634921 99215
Source of the keplerian elements: AFSPC